| time (UTC) | temp C | wind direction | speed KPH | gust KPH | rain 1hr cm | rain 24hr cm | rain mn cm | humidity % | barometer mb |
| 20260503203558 | 18 | 182 | 3.2 | 4.8 | 0.00 | 0.00 | 0.00 | 29 | 1016.9 |
| 20260503203055 | 18 | 191 | 0.0 | 1.6 | 0.00 | 0.00 | 0.00 | 32 | 1017.0 |
| 20260503202553 | 18 | 309 | 3.2 | 6.4 | 0.00 | 0.00 | 0.00 | 29 | 1017.0 |
| 20260503202051 | 18 | 309 | 3.2 | 6.4 | 0.00 | 0.00 | 0.00 | 29 | 1017.0 |
| 20260503201549 | 18 | 2 | 4.8 | 4.8 | 0.00 | 0.00 | 0.00 | 28 | 1016.9 |
| 20260503201046 | 18 | 204 | 1.6 | 3.2 | 0.00 | 0.00 | 0.00 | 28 | 1017.0 |
| 20260503200542 | 18 | 180 | 1.6 | 3.2 | 0.00 | 0.00 | 0.00 | 29 | 1017.2 |
| 20260503200039 | 18 | 185 | 3.2 | 3.2 | 0.00 | 0.00 | 0.00 | 32 | 1017.3 |
| 20260503195536 | 17 | 177 | 1.6 | 3.2 | 0.00 | 0.00 | 0.00 | 30 | 1017.5 |
| 20260503195033 | 17 | 39 | 1.6 | 4.8 | 0.00 | 0.00 | 0.00 | 32 | 1017.4 |
| 20260503194530 | 17 | 216 | 4.8 | 9.7 | 0.00 | 0.00 | 0.00 | 30 | 1017.7 |
| 20260503194030 | 18 | 62 | 3.2 | 4.8 | 0.00 | 0.00 | 0.00 | 29 | 1017.3 |
| 20260503193527 | 18 | 185 | 1.6 | 3.2 | 0.00 | 0.00 | 0.00 | 31 | 1017.6 |
| 20260503193022 | 17 | 179 | 3.2 | 3.2 | 0.00 | 0.00 | 0.00 | 33 | 1017.7 |
| 20260503192518 | 16 | 193 | 0.0 | 0.0 | 0.00 | 0.00 | 0.00 | 32 | 1017.7 |
| 20260503192014 | 17 | 232 | 3.2 | 4.8 | 0.00 | 0.00 | 0.00 | 32 | 1017.9 |
| 20260503191511 | 17 | 218 | 3.2 | 6.4 | 0.00 | 0.00 | 0.00 | 32 | 1018.0 |
| 20260503191008 | 17 | 182 | 1.6 | 4.8 | 0.00 | 0.00 | 0.00 | 30 | 1018.0 |
| 20260503190505 | 17 | 183 | 1.6 | 1.6 | 0.00 | 0.00 | 0.00 | 31 | 1017.9 |
| 20260503190002 | 17 | 128 | 0.0 | 9.7 | 0.00 | 0.00 | 0.00 | 33 | 1018.1 |
| 20260503185458 | 16 | 249 | 3.2 | 22.5 | 0.00 | 0.00 | 0.00 | 31 | 1018.4 |
| 20260503184958 | 17 | 229 | 3.2 | 4.8 | 0.00 | 0.00 | 0.00 | 30 | 1017.9 |
| 20260503184454 | 17 | 20 | 0.0 | 3.2 | 0.00 | 0.00 | 0.00 | 31 | 1018.4 |
| 20260503183951 | 17 | 201 | 3.2 | 9.7 | 0.00 | 0.00 | 0.00 | 36 | 1018.4 |
| 20260503183448 | 17 | 355 | 3.2 | 11.3 | 0.00 | 0.00 | 0.00 | 33 | 1018.5 |
| 20260503182944 | 16 | 108 | 1.6 | 11.3 | 0.00 | 0.00 | 0.00 | 31 | 1018.6 |
| 20260503182444 | 16 | 335 | 0.0 | 11.3 | 0.00 | 0.00 | 0.00 | 30 | 1018.5 |
| 20260503181941 | 16 | 176 | 1.6 | 6.4 | 0.00 | 0.00 | 0.00 | 32 | 1018.8 |
| 20260503181438 | 16 | 184 | 1.6 | 4.8 | 0.00 | 0.00 | 0.00 | 36 | 1018.6 |
| 20260503180933 | 16 | 173 | 1.6 | 3.2 | 0.00 | 0.00 | 0.00 | 33 | 1018.4 |
| 20260503180432 | 15 | 211 | 4.8 | 4.8 | 0.00 | 0.00 | 0.00 | 33 | 1018.6 |
| 20260503175929 | 17 | 38 | 3.2 | 9.7 | 0.00 | 0.00 | 0.00 | 33 | 1018.6 |
| 20260503175427 | 16 | 195 | 1.6 | 3.2 | 0.00 | 0.00 | 0.00 | 35 | 1018.7 |
| 20260503174922 | 16 | 325 | 8.0 | 12.9 | 0.00 | 0.00 | 0.00 | 32 | 1018.3 |
| 20260503174420 | 16 | 161 | 1.6 | 4.8 | 0.00 | 0.00 | 0.00 | 33 | 1018.6 |
| 20260503173914 | 16 | 306 | 3.2 | 9.7 | 0.00 | 0.00 | 0.00 | 32 | 1018.8 |
| 20260503173411 | 15 | 171 | 0.0 | 3.2 | 0.00 | 0.00 | 0.00 | 39 | 1018.9 |
| 20260503172908 | 15 | 176 | 3.2 | 4.8 | 0.00 | 0.00 | 0.00 | 36 | 1018.9 |
| 20260503172406 | 15 | 184 | 3.2 | 4.8 | 0.00 | 0.00 | 0.00 | 33 | 1018.8 |
| 20260503171901 | 16 | 2 | 4.8 | 9.7 | 0.00 | 0.00 | 0.00 | 34 | 1018.9 |
| 20260503171358 | 15 | 193 | 3.2 | 4.8 | 0.00 | 0.00 | 0.00 | 33 | 1019.0 |
| 20260503170856 | 15 | 60 | 4.8 | 6.4 | 0.00 | 0.00 | 0.00 | 33 | 1019.2 |
| 20260503170352 | 15 | 187 | 1.6 | 6.4 | 0.00 | 0.00 | 0.00 | 35 | 1019.3 |
| 20260503150744 | 12 | 8 | 1.6 | 12.9 | 0.00 | 0.00 | 0.00 | 36 | 1019.8 |
| 20260503150240 | 13 | 188 | 3.2 | 12.9 | 0.00 | 0.00 | 0.00 | 38 | 1020.0 |
| 20260503140205 | 11 | 209 | 3.2 | 4.8 | 0.00 | 0.00 | 0.00 | 35 | 1019.8 |
| 20260503131134 | 10 | 313 | 11.3 | 17.7 | 0.00 | 0.00 | 0.00 | 50 | 1019.8 |
| 20260503130632 | 10 | 143 | 3.2 | 22.5 | 0.00 | 0.00 | 0.00 | 52 | 1020.0 |
| 20260503130129 | 10 | 344 | 4.8 | 11.3 | 0.00 | 0.00 | 0.00 | 53 | 1019.7 |
| 20260503110517 | 6 | 160 | 0.0 | 1.6 | 0.00 | 0.00 | 0.00 | 69 | 1018.8 |
| 20260503090403 | 8 | 124 | 1.6 | 3.2 | 0.00 | 0.00 | 0.00 | 60 | 1016.8 |
| 20260503081330 | 8 | 22 | 4.8 | 4.8 | 0.00 | 0.00 | 0.00 | 58 | 1016.3 |
| 20260503080826 | 8 | 94 | 0.0 | 1.6 | 0.00 | 0.00 | 0.00 | 59 | 1016.3 |
| 20260503080323 | 8 | 251 | 3.2 | 6.4 | 0.00 | 0.00 | 0.00 | 58 | 1016.4 |
| 20260503072759 | 9 | 121 | 1.6 | 4.8 | 0.00 | 0.00 | 0.00 | 56 | 1016.0 |
| 20260503072257 | 10 | 37 | 6.4 | 12.9 | 0.00 | 0.00 | 0.00 | 56 | 1015.8 |
| 20260503071752 | 10 | 17 | 4.8 | 6.4 | 0.00 | 0.00 | 0.00 | 56 | 1015.7 |
| 20260503071250 | 10 | 165 | 1.6 | 4.8 | 0.00 | 0.00 | 0.00 | 56 | 1015.7 |
| 20260503070746 | 10 | 322 | 3.2 | 9.7 | 0.00 | 0.00 | 0.00 | 57 | 1015.7 |
| 20260503070244 | 10 | 126 | 0.0 | 6.4 | 0.00 | 0.00 | 0.00 | 57 | 1015.6 |
| 20260503060209 | 10 | 41 | 6.4 | 6.4 | 0.00 | 0.00 | 0.00 | 58 | 1015.1 |
| 20260503054656 | 10 | 240 | 3.2 | 14.5 | 0.00 | 0.00 | 0.00 | 57 | 1015.0 |
| 20260503054153 | 11 | 93 | 0.0 | 4.8 | 0.00 | 0.00 | 0.00 | 57 | 1014.9 |
| 20260503053651 | 11 | 359 | 6.4 | 11.3 | 0.00 | 0.00 | 0.00 | 57 | 1015.2 |
| 20260503053150 | 11 | 136 | 0.0 | 4.8 | 0.00 | 0.00 | 0.00 | 57 | 1015.1 |
| 20260503052645 | 11 | 271 | 3.2 | 3.2 | 0.00 | 0.00 | 0.00 | 57 | 1015.3 |
| 20260503052142 | 11 | 113 | 0.0 | 3.2 | 0.00 | 0.00 | 0.00 | 57 | 1015.0 |
| 20260503051637 | 11 | 251 | 3.2 | 6.4 | 0.00 | 0.00 | 0.00 | 57 | 1015.2 |
| 20260503051135 | 11 | 358 | 3.2 | 11.3 | 0.00 | 0.00 | 0.00 | 58 | 1015.1 |
| 20260503050632 | 11 | 168 | 1.6 | 3.2 | 0.00 | 0.00 | 0.00 | 59 | 1015.0 |
| 20260503050128 | 11 | 21 | 1.6 | 4.8 | 0.00 | 0.00 | 0.00 | 59 | 1015.0 |
| 20260503045626 | 11 | 154 | 0.0 | 1.6 | 0.00 | 0.00 | 0.00 | 60 | 1014.9 |
| 20260503045123 | 11 | 158 | 0.0 | 0.0 | 0.00 | 0.00 | 0.00 | 59 | 1014.9 |
| 20260503044619 | 11 | 152 | 0.0 | 3.2 | 0.00 | 0.00 | 0.00 | 58 | 1014.9 |
| 20260503044117 | 11 | 268 | 3.2 | 3.2 | 0.00 | 0.00 | 0.00 | 59 | 1014.8 |
| 20260503043613 | 11 | 132 | 0.0 | 4.8 | 0.00 | 0.00 | 0.00 | 59 | 1014.8 |
| 20260503043110 | 11 | 36 | 1.6 | 3.2 | 0.00 | 0.00 | 0.00 | 59 | 1014.7 |
| 20260503042607 | 11 | 144 | 0.0 | 1.6 | 0.00 | 0.00 | 0.00 | 60 | 1015.0 |
| 20260503042103 | 11 | 149 | 0.0 | 0.0 | 0.00 | 0.00 | 0.00 | 60 | 1014.9 |
| 20260503041600 | 11 | 114 | 0.0 | 0.0 | 0.00 | 0.00 | 0.00 | 60 | 1014.9 |
| 20260503041058 | 11 | 126 | 0.0 | 0.0 | 0.00 | 0.00 | 0.00 | 60 | 1014.9 |
| 20260503040554 | 11 | 149 | 0.0 | 0.0 | 0.00 | 0.00 | 0.00 | 60 | 1014.8 |
| 20260503040052 | 11 | 151 | 0.0 | 1.6 | 0.00 | 0.00 | 0.00 | 60 | 1015.0 |
| 20260503035548 | 11 | 152 | 0.0 | 1.6 | 0.00 | 0.00 | 0.00 | 60 | 1014.8 |
| 20260503035046 | 11 | 152 | 0.0 | 1.6 | 0.00 | 0.00 | 0.00 | 62 | 1014.9 |
| 20260503034543 | 11 | 131 | 0.0 | 0.0 | 0.00 | 0.00 | 0.00 | 62 | 1014.8 |
| 20260503034040 | 11 | 145 | 0.0 | 0.0 | 0.00 | 0.00 | 0.00 | 62 | 1014.8 |
| 20260503033537 | 11 | 155 | 0.0 | 0.0 | 0.00 | 0.00 | 0.00 | 63 | 1014.9 |
| 20260503033035 | 11 | 154 | 0.0 | 0.0 | 0.00 | 0.00 | 0.00 | 63 | 1014.8 |
| 20260503032533 | 11 | 150 | 0.0 | 0.0 | 0.00 | 0.00 | 0.00 | 63 | 1014.8 |
| 20260503032031 | 11 | 152 | 0.0 | 0.0 | 0.00 | 0.00 | 0.00 | 63 | 1014.8 |
| 20260503031529 | 11 | 152 | 0.0 | 0.0 | 0.00 | 0.00 | 0.00 | 63 | 1014.9 |
| 20260503031026 | 11 | 141 | 0.0 | 0.0 | 0.00 | 0.00 | 0.00 | 63 | 1014.7 |
| 20260503030522 | 11 | 151 | 0.0 | 0.0 | 0.00 | 0.00 | 0.00 | 63 | 1014.8 |
| 20260503030019 | 11 | 149 | 0.0 | 0.0 | 0.00 | 0.00 | 0.00 | 64 | 1014.7 |
| 20260503025515 | 11 | 155 | 0.0 | 0.0 | 0.00 | 0.00 | 0.00 | 65 | 1014.8 |
| 20260503025014 | 11 | 157 | 0.0 | 0.0 | 0.00 | 0.00 | 0.00 | 64 | 1015.0 |
| 20260503024509 | 10 | 153 | 0.0 | 0.0 | 0.00 | 0.00 | 0.00 | 66 | 1014.8 |
| 20260503024007 | 10 | 149 | 0.0 | 0.0 | 0.00 | 0.00 | 0.00 | 69 | 1014.8 |
| 20260503023503 | 10 | 149 | 0.0 | 0.0 | 0.00 | 0.00 | 0.00 | 69 | 1014.8 |
| 20260503023000 | 10 | 146 | 0.0 | 0.0 | 0.00 | 0.00 | 0.00 | 70 | 1014.8 |
| 20260503022456 | 10 | 152 | 0.0 | 0.0 | 0.00 | 0.00 | 0.00 | 71 | 1014.6 |
| 20260503021951 | 10 | 152 | 0.0 | 0.0 | 0.00 | 0.00 | 0.00 | 73 | 1014.7 |
| 20260503021448 | 10 | 152 | 0.0 | 0.0 | 0.00 | 0.00 | 0.00 | 72 | 1014.6 |
| 20260503020946 | 10 | 152 | 0.0 | 0.0 | 0.00 | 0.00 | 0.00 | 72 | 1014.6 |
| 20260503020443 | 10 | 152 | 0.0 | 0.0 | 0.00 | 0.00 | 0.00 | 72 | 1014.5 |
| 20260503015939 | 10 | 153 | 0.0 | 0.0 | 0.00 | 0.00 | 0.00 | 74 | 1014.6 |
| 20260503015436 | 10 | 152 | 0.0 | 0.0 | 0.00 | 0.00 | 0.00 | 73 | 1014.7 |
| 20260503014932 | 10 | 152 | 0.0 | 0.0 | 0.00 | 0.00 | 0.00 | 73 | 1014.6 |
| 20260503014429 | 10 | 152 | 0.0 | 0.0 | 0.00 | 0.00 | 0.00 | 72 | 1014.6 |
| 20260503013928 | 10 | 152 | 0.0 | 0.0 | 0.00 | 0.00 | 0.00 | 72 | 1014.2 |
| 20260503013424 | 10 | 154 | 0.0 | 0.0 | 0.00 | 0.00 | 0.00 | 72 | 1014.5 |
| 20260503012922 | 10 | 151 | 0.0 | 0.0 | 0.00 | 0.00 | 0.00 | 71 | 1014.4 |
| 20260503012420 | 10 | 149 | 0.0 | 0.0 | 0.00 | 0.00 | 0.00 | 70 | 1014.4 |
| 20260503011915 | 10 | 149 | 0.0 | 0.0 | 0.00 | 0.00 | 0.00 | 70 | 1014.4 |
| 20260503011412 | 10 | 149 | 0.0 | 0.0 | 0.00 | 0.00 | 0.00 | 70 | 1014.4 |
| 20260503010909 | 10 | 149 | 0.0 | 0.0 | 0.00 | 0.00 | 0.00 | 70 | 1014.3 |
| 20260503010406 | 10 | 136 | 0.0 | 0.0 | 0.00 | 0.00 | 0.00 | 70 | 1014.4 |
| 20260503005903 | 10 | 152 | 0.0 | 0.0 | 0.00 | 0.00 | 0.00 | 69 | 1014.5 |
| 20260503005401 | 10 | 152 | 0.0 | 0.0 | 0.00 | 0.00 | 0.00 | 69 | 1014.4 |
| 20260503004856 | 10 | 152 | 0.0 | 0.0 | 0.00 | 0.00 | 0.00 | 70 | 1014.1 |
| 20260503004354 | 10 | 149 | 0.0 | 0.0 | 0.00 | 0.00 | 0.00 | 67 | 1014.0 |
| 20260503003852 | 10 | 152 | 0.0 | 0.0 | 0.00 | 0.00 | 0.00 | 69 | 1014.0 |
| 20260503003348 | 10 | 151 | 0.0 | 0.0 | 0.00 | 0.00 | 0.00 | 68 | 1014.0 |
| 20260503002845 | 10 | 155 | 0.0 | 0.0 | 0.00 | 0.00 | 0.00 | 66 | 1013.9 |
| 20260503002343 | 11 | 149 | 0.0 | 0.0 | 0.00 | 0.00 | 0.00 | 65 | 1013.8 |
| 20260503001839 | 11 | 152 | 0.0 | 0.0 | 0.00 | 0.00 | 0.00 | 64 | 1014.0 |
| 20260503001335 | 11 | 152 | 0.0 | 0.0 | 0.00 | 0.00 | 0.00 | 64 | 1013.9 |
| 20260503000833 | 11 | 148 | 0.0 | 0.0 | 0.00 | 0.00 | 0.00 | 61 | 1013.7 |
| 20260503000330 | 12 | 150 | 0.0 | 0.0 | 0.00 | 0.00 | 0.00 | 60 | 1013.6 |
| 20260502235827 | 12 | 146 | 0.0 | 0.0 | 0.00 | 0.00 | 0.00 | 59 | 1013.4 |
| 20260502235324 | 12 | 151 | 0.0 | 0.0 | 0.00 | 0.00 | 0.00 | 59 | 1013.3 |
| 20260502234821 | 12 | 150 | 0.0 | 0.0 | 0.00 | 0.00 | 0.00 | 58 | 1013.5 |
| 20260502234318 | 12 | 157 | 0.0 | 0.0 | 0.00 | 0.00 | 0.00 | 59 | 1013.4 |
| 20260502233814 | 12 | 157 | 0.0 | 0.0 | 0.00 | 0.00 | 0.00 | 57 | 1013.4 |
| 20260502233311 | 13 | 156 | 0.0 | 0.0 | 0.00 | 0.00 | 0.00 | 55 | 1013.3 |
| 20260502232808 | 13 | 156 | 0.0 | 0.0 | 0.00 | 0.00 | 0.00 | 54 | 1013.2 |
| 20260502232305 | 13 | 156 | 0.0 | 0.0 | 0.00 | 0.00 | 0.00 | 53 | 1013.0 |
| 20260502231800 | 13 | 158 | 0.0 | 0.0 | 0.00 | 0.00 | 0.00 | 52 | 1013.0 |
| 20260502231258 | 13 | 153 | 0.0 | 0.0 | 0.00 | 0.00 | 0.00 | 50 | 1012.9 |
| 20260502230756 | 13 | 165 | 0.0 | 0.0 | 0.00 | 0.00 | 0.00 | 50 | 1012.9 |
| 20260502230254 | 14 | 150 | 0.0 | 0.0 | 0.00 | 0.00 | 0.00 | 48 | 1012.9 |
| 20260502225750 | 14 | 156 | 0.0 | 0.0 | 0.00 | 0.00 | 0.00 | 49 | 1012.9 |
| 20260502225247 | 14 | 144 | 0.0 | 0.0 | 0.00 | 0.00 | 0.00 | 47 | 1012.6 |
| 20260502224744 | 15 | 183 | 1.6 | 4.8 | 0.00 | 0.00 | 0.00 | 45 | 1012.9 |
| 20260502224241 | 15 | 152 | 0.0 | 0.0 | 0.00 | 0.00 | 0.00 | 47 | 1012.8 |
| 20260502223738 | 15 | 147 | 0.0 | 0.0 | 0.00 | 0.00 | 0.00 | 48 | 1012.8 |
| 20260502223236 | 14 | 156 | 0.0 | 0.0 | 0.00 | 0.00 | 0.00 | 46 | 1012.6 |
| 20260502222734 | 14 | 158 | 0.0 | 1.6 | 0.00 | 0.00 | 0.00 | 48 | 1012.7 |
| 20260502222230 | 14 | 160 | 0.0 | 1.6 | 0.00 | 0.00 | 0.00 | 47 | 1012.8 |
| 20260502221726 | 14 | 12 | 3.2 | 4.8 | 0.00 | 0.00 | 0.00 | 44 | 1012.9 |
| 20260502221223 | 14 | 38 | 3.2 | 4.8 | 0.00 | 0.00 | 0.00 | 45 | 1013.0 |
| 20260502220719 | 15 | 142 | 1.6 | 1.6 | 0.00 | 0.00 | 0.00 | 45 | 1013.3 |
| 20260502220215 | 15 | 108 | 0.0 | 6.4 | 0.00 | 0.00 | 0.00 | 45 | 1013.1 |
| 20260502215712 | 15 | 123 | 6.4 | 11.3 | 0.00 | 0.00 | 0.00 | 44 | 1013.1 |
| 20260502215203 | 15 | 82 | 3.2 | 9.7 | 0.00 | 0.00 | 0.00 | 44 | 1013.1 |
| 20260502214701 | 15 | 145 | 0.0 | 6.4 | 0.00 | 0.00 | 0.00 | 46 | 1013.1 |
| 20260502214158 | 15 | 135 | 0.0 | 1.6 | 0.00 | 0.00 | 0.00 | 46 | 1013.2 |
| 20260502213655 | 15 | 138 | 3.2 | 9.7 | 0.00 | 0.00 | 0.00 | 44 | 1013.0 |
| 20260502213152 | 15 | 172 | 0.0 | 6.4 | 0.00 | 0.00 | 0.00 | 45 | 1013.0 |
| 20260502212651 | 15 | 277 | 6.4 | 6.4 | 0.00 | 0.00 | 0.00 | 44 | 1013.1 |
| 20260502212149 | 15 | 79 | 1.6 | 1.6 | 0.00 | 0.00 | 0.00 | 44 | 1013.0 |
| 20260502211644 | 15 | 170 | 0.0 | 4.8 | 0.00 | 0.00 | 0.00 | 46 | 1012.8 |
| 20260502211141 | 16 | 151 | 0.0 | 3.2 | 0.00 | 0.00 | 0.00 | 42 | 1012.9 |
| 20260502210638 | 16 | 183 | 0.0 | 4.8 | 0.00 | 0.00 | 0.00 | 41 | 1012.9 |
| 20260502210135 | 16 | 313 | 1.6 | 4.8 | 0.00 | 0.00 | 0.00 | 43 | 1012.9 |
| 20260502205632 | 16 | 186 | 1.6 | 6.4 | 0.00 | 0.00 | 0.00 | 43 | 1012.7 |
| 20260502205129 | 16 | 37 | 3.2 | 4.8 | 0.00 | 0.00 | 0.00 | 44 | 1012.8 |
| 20260502204626 | 15 | 184 | 0.0 | 3.2 | 0.00 | 0.00 | 0.00 | 45 | 1012.6 |
| 20260502204124 | 15 | 247 | 3.2 | 4.8 | 0.00 | 0.00 | 0.00 | 44 | 1012.8 |